Hourly Weather Hefei

Today, 19 January, Tuesday

Time Temperature Precipitation Wind Pressure Humidity
00:00 +5°C° 0 mm 3 mps 766 mmHg 52%
01:00 +5°C° 0 mm 3 mps 766 mmHg 53%
02:00 +4°C° 0 mm 4 mps 766 mmHg 54%
03:00 +4°C° 0 mm 4 mps 766 mmHg 55%
04:00 +3°C° 0 mm 4 mps 765 mmHg 55%
05:00 +3°C° 0 mm 4 mps 765 mmHg 56%
06:00 +3°C° 0 mm 4 mps 765 mmHg 56%
07:00 +3°C° 0 mm 4 mps 765 mmHg 56%
08:00 +3°C° 0 mm 4 mps 766 mmHg 57%
09:00 +5°C° 0 mm 5 mps 766 mmHg 52%
10:00 +6°C° 0 mm 5 mps 766 mmHg 47%
11:00 +8°C° 0 mm 6 mps 766 mmHg 42%
12:00 +9°C° 0 mm 6 mps 765 mmHg 40%
13:00 +10°C° 0 mm 5 mps 764 mmHg 37%
14:00 +12°C° 0 mm 5 mps 764 mmHg 35%
15:00 +12°C° 0 mm 5 mps 764 mmHg 36%
16:00 +10°C° 0 mm 5 mps 764 mmHg 38%
17:00 +10°C° 0 mm 5 mps 764 mmHg 39%
18:00 +9°C° 0 mm 5 mps 764 mmHg 43%
19:00 +8°C° 0 mm 5 mps 764 mmHg 47%
20:00 +7°C° 0 mm 5 mps 764 mmHg 51%
21:00 +7°C° 0 mm 5 mps 764 mmHg 55%
22:00 +6°C° 0 mm 5 mps 764 mmHg 60%
23:00 +5°C° 0 mm 5 mps 764 mmHg 64%

Tomorrow, 20 January, Wednesday

Time Temperature Precipitation Wind Pressure Humidity
00:00 +5°C° 0 mm 4 mps 764 mmHg 67%
01:00 +5°C° 0 mm 4 mps 764 mmHg 71%
02:00 +4°C° 0 mm 3 mps 764 mmHg 75%
03:00 +4°C° 0 mm 3 mps 763 mmHg 75%
04:00 +4°C° 0 mm 3 mps 763 mmHg 76%
05:00 +5°C° 0 mm 2 mps 763 mmHg 77%
06:00 +5°C° 0 mm 2 mps 763 mmHg 75%
07:00 +5°C° 0 mm 2 mps 764 mmHg 72%
08:00 +5°C° 0 mm 2 mps 764 mmHg 70%
09:00 +7°C° 0 mm 2 mps 764 mmHg 62%
10:00 +9°C° 0 mm 2 mps 764 mmHg 53%
11:00 +12°C° 0 mm 2 mps 764 mmHg 44%
12:00 +13°C° 0 mm 1 mps 763 mmHg 41%
13:00 +14°C° 0 mm 1 mps 763 mmHg 38%
14:00 +15°C° 0 mm 1 mps 762 mmHg 36%
15:00 +14°C° 0 mm 1 mps 762 mmHg 38%
16:00 +14°C° 0 mm 1 mps 762 mmHg 41%
17:00 +13°C° 0 mm 0 mps 762 mmHg 44%
18:00 +13°C° 0 mm 1 mps 762 mmHg 45%
19:00 +13°C° 0 mm 1 mps 763 mmHg 47%
20:00 +12°C° 0 mm 1 mps 763 mmHg 49%
21:00 +12°C° 0 mm 1 mps 763 mmHg 49%
22:00 +12°C° 0 mm 1 mps 763 mmHg 50%
23:00 +11°C° 0 mm 0 mps 763 mmHg 50%

Day after tomorrow, 21 January, Thursday

Time Temperature Precipitation Wind Pressure Humidity
00:00 +12°C° 0 mm 1 mps 763 mmHg 51%
01:00 +12°C° 0 mm 1 mps 763 mmHg 51%
02:00 +12°C° 0 mm 1 mps 762 mmHg 51%
03:00 +11°C° 0 mm 1 mps 762 mmHg 51%
04:00 +11°C° 0 mm 1 mps 762 mmHg 52%
05:00 +11°C° 0 mm 1 mps 762 mmHg 52%
06:00 +11°C° 0 mm 1 mps 762 mmHg 52%
07:00 +11°C° 0 mm 1 mps 763 mmHg 53%
08:00 +11°C° 0 mm 1 mps 763 mmHg 53%
09:00 +11°C° 0 mm 1 mps 763 mmHg 54%
10:00 +11°C° 0 mm 1 mps 764 mmHg 55%
11:00 +11°C° 0 mm 1 mps 764 mmHg 56%
12:00 +12°C° 0 mm 1 mps 763 mmHg 52%
13:00 +13°C° 0 mm 1 mps 763 mmHg 48%
14:00 +14°C° 0 mm 1 mps 762 mmHg 45%
15:00 +14°C° 0 mm 1 mps 762 mmHg 46%
16:00 +14°C° 0 mm 1 mps 762 mmHg 48%
17:00 +13°C° 0 mm 0 mps 762 mmHg 49%
18:00 +13°C° 0 mm 0 mps 763 mmHg 51%
19:00 +12°C° 0 mm 0 mps 763 mmHg 54%
20:00 +12°C° 0 mm 1 mps 763 mmHg 56%
21:00 +11°C° 0 mm 0 mps 763 mmHg 57%
22:00 +11°C° 0 mm 0 mps 763 mmHg 57%
23:00 +10°C° 0 mm 0 mps 763 mmHg 58%

22 January, Friday

Time Temperature Precipitation Wind Pressure Humidity
00:00 +11°C° 0 mm 1 mps 763 mmHg 59%
01:00 +11°C° 0 mm 1 mps 763 mmHg 60%
02:00 +11°C° 0 mm 1 mps 763 mmHg 61%
03:00 +11°C° 0 mm 1 mps 763 mmHg 61%
04:00 +10°C° 0 mm 1 mps 763 mmHg 60%
05:00 +10°C° 0 mm 1 mps 762 mmHg 60%
06:00 +10°C° 0 mm 1 mps 763 mmHg 61%
07:00 +10°C° 0 mm 1 mps 763 mmHg 62%
08:00 +9°C° 0 mm 0 mps 764 mmHg 62%
09:00 +9°C° 0.1 mm 0 mps 764 mmHg 65%
10:00 +10°C° 0.1 mm 1 mps 764 mmHg 67%
11:00 +9°C° 0.1 mm 1 mps 764 mmHg 70%
12:00 +9°C° 0 mm 1 mps 763 mmHg 70%
13:00 +9°C° 0 mm 1 mps 763 mmHg 71%
14:00 +8°C° 0 mm 2 mps 762 mmHg 72%
15:00 +8°C° 0 mm 2 mps 762 mmHg 73%
16:00 +8°C° 0 mm 2 mps 762 mmHg 74%
17:00 +8°C° 0 mm 3 mps 762 mmHg 75%
18:00 +8°C° 0.3 mm 3 mps 762 mmHg 78%
19:00 +7°C° 0.3 mm 3 mps 762 mmHg 81%
20:00 +7°C° 0.3 mm 3 mps 762 mmHg 84%
21:00 +7°C° 0.1 mm 2 mps 762 mmHg 86%
22:00 +7°C° 0.1 mm 2 mps 762 mmHg 88%
23:00 +7°C° 0.1 mm 2 mps 762 mmHg 89%

23 January, Saturday

Time Temperature Precipitation Wind Pressure Humidity
00:00 +8°C° 0.1 mm 1 mps 762 mmHg 90%
01:00 +8°C° 0.1 mm 1 mps 762 mmHg 91%
02:00 +8°C° 0.1 mm 1 mps 762 mmHg 92%
03:00 +7°C° 0.3 mm 2 mps 762 mmHg 92%
04:00 +7°C° 0.3 mm 2 mps 762 mmHg 92%
05:00 +7°C° 0.3 mm 3 mps 762 mmHg 93%
06:00 +7°C° 0 mm 3 mps 762 mmHg 91%
07:00 +7°C° 0 mm 3 mps 762 mmHg 90%
08:00 +7°C° 0 mm 3 mps 763 mmHg 89%
09:00 +7°C° 0 mm 3 mps 763 mmHg 85%
10:00 +8°C° 0 mm 3 mps 763 mmHg 82%
11:00 +8°C° 0 mm 3 mps 763 mmHg 78%
12:00 +9°C° 0 mm 2 mps 763 mmHg 73%
13:00 +11°C° 0 mm 1 mps 763 mmHg 68%
14:00 +12°C° 0 mm 1 mps 762 mmHg 63%
15:00 +12°C° 0 mm 1 mps 762 mmHg 62%
16:00 +12°C° 0 mm 1 mps 762 mmHg 61%
17:00 +12°C° 0 mm 1 mps 762 mmHg 60%
18:00 +11°C° 0 mm 1 mps 763 mmHg 65%
19:00 +10°C° 0 mm 1 mps 763 mmHg 69%
20:00 +9°C° 0 mm 1 mps 764 mmHg 74%
21:00 +9°C° 0 mm 1 mps 764 mmHg 75%
22:00 +8°C° 0 mm 2 mps 764 mmHg 76%
23:00 +7°C° 0 mm 2 mps 763 mmHg 77%

24 January, Sunday

Time Temperature Precipitation Wind Pressure Humidity
00:00 +7°C° 0 mm 2 mps 763 mmHg 79%
01:00 +7°C° 0 mm 2 mps 763 mmHg 80%
02:00 +6°C° 0 mm 2 mps 763 mmHg 82%
03:00 +6°C° 0 mm 2 mps 763 mmHg 81%
04:00 +6°C° 0 mm 2 mps 763 mmHg 81%
05:00 +5°C° 0 mm 2 mps 763 mmHg 80%
06:00 +4°C° 0 mm 3 mps 764 mmHg 81%
07:00 +4°C° 0 mm 3 mps 764 mmHg 82%
08:00 +4°C° 0 mm 3 mps 765 mmHg 83%
09:00 +5°C° 0 mm 4 mps 764 mmHg 77%
10:00 +7°C° 0 mm 4 mps 764 mmHg 71%
11:00 +8°C° 0 mm 5 mps 764 mmHg 64%
12:00 +9°C° 0 mm 5 mps 764 mmHg 61%
13:00 +10°C° 0 mm 5 mps 763 mmHg 57%
14:00 +12°C° 0 mm 5 mps 763 mmHg 53%
15:00 +12°C° 0 mm 5 mps 763 mmHg 53%
16:00 +10°C° 0 mm 5 mps 763 mmHg 53%
17:00 +11°C° 0 mm 4 mps 762 mmHg 53%
18:00 +10°C° 0 mm 4 mps 763 mmHg 56%
19:00 +10°C° 0 mm 4 mps 763 mmHg 58%
20:00 +8°C° 0 mm 4 mps 763 mmHg 61%
21:00 +8°C° 0 mm 4 mps 763 mmHg 62%
22:00 +7°C° 0 mm 4 mps 763 mmHg 64%
23:00 +7°C° 0 mm 4 mps 763 mmHg 65%
Show more